Torna al catalogo

PRAETORIAN SDA_616

AttivoMilitarePO
NORAD 65579·PAYLOAD·🇺🇸 United States

Lanciato Sep 10, 2025 da Vandenberg Space Force Base

Loading…

Prossimi Passaggi (prossime 24 ore)

TLE

AggiornatoSource: Space-Track

Epoca: Sep 13, 2026, 19:21 UTC

1 65579U 25203Q   26256.80676907  .00000104  00000-0  84455-4 0  9993
2 65579  81.3040 289.1699 0004868 332.2824  27.8072 13.83274946 50934

Traccia PRAETORIAN SDA_616 in tempo reale con AllMySat

Download on the App Store